Regional Weather Roundup
Issued by NWS

Home | Current Version | Previous Version | Text Only | Print | Product List | Glossary Off
Versions: 1 2 3 4 5 6 7 8 9 10 11 12 13 14 15 16 17 18 19 20 21 22 23 24 25 26 27 28 29 30 31 32 33 34 35 36 37 38 39 40 41 42 43 44 45 46 47 48 49 50

000
ASUS43 KLOT 251604
RWRIL

ILLINOIS REGIONAL WEATHER ROUNDUP
NATIONAL WEATHER SERVICE CHICAGO/ROMEOVILLE IL
1100 AM CDT THU AUG 25 2016

NOTE: "FAIR" INDICATES FEW OR NO CLOUDS BELOW 12,000 FEET WITH NO
SIGNIFICANT WEATHER AND/OR OBSTRUCTIONS TO VISIBILITY.

* THESE STATIONS ARE NOT UNDER NWS QUALITY CONTROL. THEY ALSO MAY NOT
  REPORT WEATHER SUCH AS PRECIPITATION OR FOG.

ILZ001-002-007-009-015-016-024-251700-
NORTHWEST ILLINOIS

CITY           SKY/WX    TMP DP  RH WIND       PRES   REMARKS
MOLINE         CLOUDY    77  64  64 VRB5      30.07R
STERLING*      CLOUDY    76  67  73 CALM      30.07R
SAVANNA*       CLOUDY    76  64  66 CALM      30.06R
$$

ILZ003-004-008-010-011-017-018-251700-
NORTH CENTRAL ILLINOIS

CITY           SKY/WX    TMP DP  RH WIND       PRES   REMARKS
ROCKFORD       PTSUNNY   76  64  66 W3        30.06R
FREEPORT*      CLOUDY    74  63  67 W3        30.08R
ROCHELLE*      CLOUDY    76  67  74 CALM      30.06S
$$

ILZ005-006-012>014-019>023-251700-
NORTHEAST ILLINOIS

CITY           SKY/WX    TMP DP  RH WIND       PRES   REMARKS
CHICAGO-OHARE  CLOUDY    75  69  81 N7        30.02R
CHICAGO-MIDWAY CLOUDY    76  70  82 W7        30.02R
AURORA         PTSUNNY   78  71  79 VRB5      30.05R HX  80
LANSING*       CLOUDY    77  73  87 W10       30.03R
JOLIET*        CLOUDY    78  72  82 W6        30.04R HX  80
WAUKEGAN       MOSUNNY   78  69  73 VRB5      30.02R HX  80
DUPAGE AIRPORT CLOUDY    76  69  79 N5        30.04R
KANKAKEE*      CLOUDY    76  71  83 W10       30.06R
WHEELING       CLOUDY    75  68  78 NW7       30.04R
MORRIS*        PTSUNNY   76  70  80 W6        30.04R
ROMEOVILLE*    CLOUDY    75  69  80 W8        30.04R
NORTHERLY ISL    N/A     71  66  84 N7          N/A
$$

LMZ740>746-251700-
SOUTHERN LAKE MICHIGAN

STATION/POSITION SKY/WX   TEMP    WIND        PRES    VSBY  WAVE
                          AIR SEA DIR/SP/G                  HT/PER
                          (F)     (DEG/KT/KT) (MB)    (MI)  (FT/S)
SOUTHERN BUOY              73 74  340/ 10/ 12 1014.5          1
WILMETTE HARBOR            69 67  340/  6/  6   N/A           0
HARRISON CRIB              73     290/  9/ 10   N/A
BURNHAM HARBOR             70     350/  6/  8   N/A
CALUMET HARBOR             74     220/  6/ 10 1015.5R
BURNS HARBOR               74     250/ 10/ 15 1016.6R
MICHIGAN CITY              74     220/ 13/ 15   N/A
MICHIGAN CITY 6N           74 73  250/ 10/ 14   N/A
ST. JOSEPH                 74 74  240/ 14/ 17 1015.4R         3/ 4
$$

ILZ025>027-034>036-040-047-049-050-058-095>099-251700-
WEST-CENTRAL ILLINOIS

CITY           SKY/WX    TMP DP  RH WIND       PRES   REMARKS
QUINCY         CLOUDY    75  72  90 SW7       30.10R
GALESBURG*     CLOUDY    75  69  80 CALM      30.09R
MACOMB*        CLOUDY    74  70  86 W3        30.11R
JACKSONVILLE*  CLOUDY    79  71  76 W7        30.09R HX  82
PITTSFIELD*    CLOUDY    79  71  77 W9        30.11R HX  81
$$

ILZ028>032-037-038-041>044-048-051>054-059>061-251700-
CENTRAL ILLINOIS

CITY           SKY/WX    TMP DP  RH WIND       PRES   REMARKS
PONTIAC        CLOUDY    77  74  90 W7        30.07R
BLOOMINGTON    PTSUNNY   76  71  85 SW13      30.10R
DECATUR        SUNNY     82  69  64 W9        30.09R HX  85
PEORIA         CLOUDY    77  73  87 NW3       30.07R
LACON*         MOSUNNY   76  70  79 S3        30.05S
LINCOLN*       CLOUDY    79  72  79 CALM      30.08R HX  82
SPRINGFIELD    PTSUNNY   81  71  71 W5        30.09R HX  85
TAYLORVILLE    CLOUDY    81  71  70 W5        30.09R HX  85
$$

ILZ033-039-045-046-055>057-062-063-251700-
EAST-CENTRAL ILLINOIS

CITY           SKY/WX    TMP DP  RH WIND       PRES   REMARKS
CHAMPAIGN      SUNNY     80  69  69 SW8       30.08S HX  83
RANTOUL*       CLOUDY    79  73  81 W10       30.08R HX  82
MATTOON        SUNNY     82  67  60 W7        30.08R HX  84
PARIS*         SUNNY     84  72  66 W3        30.08S HX  89
$$

ILZ079-100>102-251700-
SOUTHWEST ILLINOIS

CITY           SKY/WX    TMP DP  RH WIND       PRES   REMARKS
ALTON          PTSUNNY   82  73  74 W9        30.09R HX  88
BELLEVILLE     SUNNY     86  73  63 SW8       30.08R HX  93
CAHOKIA*       SUNNY     87  71  58 SW9       30.08R HX  93
SPARTA*        SUNNY     84  74  73 SW8       30.11R HX  91
$$

ILZ064>066-069>071-074>076-080>082-084>086-088>090-092>094-251700-
SOUTH-CENTRAL ILLINOIS

CITY           SKY/WX    TMP DP  RH WIND       PRES   REMARKS
CARBONDALE     SUNNY     85  72  65 SW9       30.11R HX  91
EFFINGHAM*     PTSUNNY   85  73  68 SW6       30.10R HX  92
MARION         SUNNY     86  75  70 SW9       30.12R HX  95
MT. VERNON     SUNNY     86  73  66 S12       30.10S HX  93
CENTRALIA*     SUNNY     86  77  75 S10       30.08S HX  96
SALEM*         MOSUNNY   86  76  71 SW7       30.09R HX  95
$$

ILZ067-068-072-073-078-083-087-091-251700-
SOUTHEAST ILLINOIS

CITY           SKY/WX    TMP DP  RH WIND       PRES   REMARKS
LAWRENCEVILLE  SUNNY     87  76  69 SW9       30.08S HX  97
FLORA*         SUNNY     87  77  73 S8        30.09R HX  98
FAIRFIELD*     MOSUNNY   85  77  76 S6        30.09R HX  95
HARRISBURG*    SUNNY     86  76  72 SW8       30.11R HX  97
ROBINSON*      SUNNY     84  77  79 SW5       30.09S HX  94
CARMI*         SUNNY     86  77  75 SW7       30.09R HX  98
$$

ABBREVIATIONS USED IN REMARKS
   TC - TEMPERATURE IN CELSIUS
  WCI - WIND CHILL INDEX
   HX - HEAT INDEX
  VSB - VISIBILITY
$$





USA.gov is the U.S. government's official web portal to all federal, state and local government web resources and services.